SL-14 DEB, 45319

Orbit data source: Space-Track

SL-14 DEB, 45319 is space debris in LEO originally from a launch on Thu, 15 Aug 1991 UTC launched from the Plesetsk Missile And Space Complex (PKMTR). Debris objects in space refer to the collection of defunct objects orbiting the Earth. Examples of debris include non-operational satellites, rocket bodies, and fragments generated from explosions, collisions, or faulty payload assembly.

Loading next visibility...
Identifier
45319, 1991-056BH
Orbit
LEO
Country
Flag of CISCIS
Related business
Manufacturer
Unknown
Mission
Spacecraft
Bus & Motor
Unknown
Mass
Unknown
Launch date (UTC)
1991-08-15 (35 years ago)
Launch vehicle
Unknown
Launch site
Plesetsk Missile And Space Complex (PKMTR)
Object type
Payload
Rocket body
Debris
Shape & HBR
Unknown shape, 0.1 m
Radar Cross Section
Small (<0.1 m²)

Expand to show TLE details & history
Last TLE update: 3 days ago

TLE from 3 days ago
0 SL-14 DEB
1 45319U 91056BH  26217.52169426  .00000853  00000-0  15199-2 0  9999
2 45319  82.5810  53.4715 0082568  91.3117 269.7479 13.39652440313855
Epoch: 2026-08-05T12:31Z
TLE epoch observation values (Epoch: 2026-08-05T12:31:14.384Z)
Latitude
Longitude
-88.41333°
Altitude
1,114.198 km
Speed
7.295 km/s
True Right ascension
03h 33m 53s
True Declination
0° 00' 00"
Sunlit
Object was in daylight at epoch
Visualization orbit readout
Latitude
Unknown
Longitude
Unknown
Altitude
Unknown
Speed
Unknown
Apparent Right ascension
Unknown
Apparent Declination
Unknown
Sunlit
N/A
Visualization observer readout
Local Sidereal Time
20:33:02
Azimuth
Unknown
Elevation
Unknown
Doppler factor
Unknown
Orbital elements
Apogee altitude
1,169.596 km
Perigee altitude
1,045.976 km
Semi-major axis
7,485.923 km
Eccentricity
0.00826
Inclination
82.581°
RAAN
53.4715°
Arg. of periapsis
91.3117°
True anomaly
268.80184°
Mean anomaly
269.7479°
Eccentric anomaly
269.27486°
Mean motion
3.35101 °/min
Orbital period
107.43 mins
BSTAR
0.0015199
Loading maneuver chart data...
Computing Atmospheric mass density...
Loading historical data...
Loading historical data...
Loading historical data...
Loading historical data...
Loading historical data...
Loading historical data...
Loading historical data...

Documentation

Showing up to 5 results
|